Home > Weather > Bryansk > Past weeks

Flag for Russia Past Weather in Bryansk, Russia — Yesterday and Last 2 Weeks

Now
81 °F

Scattered clouds.


Feels Like: 83 °F
Forecast: 62 / 86 °F
Wind: 3 mph from Southwest

Location: Brjansk

Current Time: Jul 28, 2016 at 9:27:04 PM

Latest Report: Jul 28, 2016 at 6:00 PM


Visibility: N/A

Pressure: 29.98 "Hg

Humidity: 62%

Dew Point: 66 °F

Location of BryanskLocation

Past Weather in Bryansk — Graph

°F

Bryansk Temperature Yesterday

Maximum temperature yesterday: 84 °F (at 1:30 PM)
Minimum temperature yesterday: 63 °F (at 4:00 AM)
Average temperature yesterday: 77 °F

High & Low Weather Summary for the Past Weeks

 TemperatureHumidityPressure
High91 °F (Jul 15, 3:00 PM)100% (Jul 18, 3:00 PM)30.09 "Hg (Jul 18, 3:00 PM)
Low54 °F (Jul 22, 4:00 AM)34% (Jul 15, 3:30 PM)29.56 "Hg (Jul 19, 9:00 AM)
Average72 °F73%29.89 "Hg
* Reported Jul 14 4:00 AM — Jul 28 6:00 PM, Bryansk, Weather by CustomWeather, © 2016

Note: Actual official high and low records may vary slightly from our data, if they occured in-between our weather recording intervals... More about our weather records

Advertising

Bryansk Weather History for the Previous 24 Hours

Scroll right to see more
 ConditionsComfort  
Time TempWeatherWind HumidityBarometerVisibility
6:00 PM
Thu, Jul 28
81 °FScattered clouds.3 mph62%29.98 "HgN/A
5:30 PM82 °FScattered clouds.3 mph62%29.98 "HgN/A
5:00 PM81 °FScattered clouds.3 mph62%29.98 "HgN/A
4:30 PM77 °FPartly sunny.6 mph69%29.98 "HgN/A
4:00 PM73 °FPartly sunny.6 mph78%29.98 "HgN/A
3:30 PM72 °FThunderstorms. Partly sunny.3 mph83%30.01 "HgN/A
3:00 PM70 °FThunderstorms. Partly sunny.3 mph83%30.01 "HgN/A
2:30 PM72 °FThunderstorms. Partly sunny.3 mph83%30.01 "HgN/A
2:00 PM81 °FThunderstorms. Partly sunny.3 mph58%30.01 "HgN/A
1:30 PM79 °FPartly sunny.6 mph65%30.01 "HgN/A
1:00 PM79 °FPartly sunny.3 mph65%30.01 "HgN/A
12:30 PM81 °FPartly sunny.6 mph66%30.01 "HgN/A
12:00 PM81 °FScattered clouds.3 mph58%30.01 "HgN/A
11:30 AM81 °FScattered clouds.6 mph62%30.01 "HgN/A
11:00 AM79 °FScattered clouds.6 mph65%30.01 "HgN/A
10:30 AM79 °FPassing clouds.3 mph70%30.01 "HgN/A
10:00 AM77 °FPassing clouds.3 mph74%30.04 "HgN/A
9:30 AM75 °FPassing clouds.3 mph74%30.04 "HgN/A
9:00 AM73 °FPassing clouds.3 mph78%30.04 "HgN/A
8:30 AM73 °FSunny.1 mph83%30.04 "Hg10 mi
8:00 AM70 °FClear.1 mph83%30.04 "Hg6 mi
7:30 AM68 °FClear.1 mph88%30.04 "Hg6 mi
7:00 AM66 °FClear.1 mph94%30.04 "Hg4 mi
6:00 AM63 °FFog.1 mph100%30.04 "Hg3 mi
5:00 AM63 °FFog.1 mph100%30.04 "Hg3 mi
Weather by CustomWeather, © 2016

See weather overviewHow to use our weather pages